Theta_e
319 318 319 319 322 323 325 329 322 322 326 322 317 319 317 316 318 316 316 316 319 318 317 322 321 318 320 321 322 325 322 329 328 318 317 325 332 335 339 340 339 340 339 340 339 340 341 341 341 339 339 338 338 337 338 338 338 338 338 337 333 328 326 329 334 335 335 336 336 336 336 334 334 332 326 324 325 325 323 321 315 308 310 310 308 309 309 307 303 305 318 326 328 330 331 332 333
320 319 322 321 322 321 325 328 326 326 328 319 315 320 316 316 318 317 321 318 320 321 321 328 329 325 327 327 325 327 325 328 324 319 326 330 335 336 338 340 338 340 339 339 340 340 340 341 340 339 339 337 337 337 338 338 338 339 338 338 334 328 325 326 329 332 333 334 334 335 336 334 334 330 325 325 327 326 324 322 319 309 306 308 306 304 305 306 306 307 318 326 328 329 330 331 332
320 321 322 323 321 322 333 329 324 328 328 318 316 323 318 315 318 319 321 318 320 322 320 321 325 322 324 328 324 325 324 328 328 324 329 332 335 337 338 338 337 340 339 340 340 340 340 341 341 340 339 337 337 337 338 338 339 339 339 339 335 329 325 325 328 331 332 333 333 334 335 335 334 330 326 326 328 328 325 322 320 313 305 305 305 301 301 303 304 310 319 326 329 329 329 330 331
320 323 321 324 324 330 351 338 330 331 324 320 320 323 323 321 319 319 318 318 321 319 317 317 323 317 319 328 321 323 327 329 328 327 331 331 335 338 338 337 338 340 340 341 341 340 341 342 341 340 339 338 337 337 337 338 338 339 339 339 336 330 326 326 329 332 332 332 332 333 335 335 333 329 326 327 329 328 325 322 320 315 307 303 303 302 302 302 303 310 320 326 329 328 328 330 330
321 323 318 322 326 329 340 329 330 332 319 322 321 320 332 328 320 318 315 315 316 315 315 318 324 317 319 327 321 324 327 324 322 326 332 333 336 338 338 338 339 341 341 341 341 341 341 342 341 340 339 338 337 337 337 337 338 338 338 337 334 329 327 327 327 330 331 332 332 333 335 335 332 328 327 328 329 328 325 323 320 317 309 302 302 302 302 302 305 313 320 325 328 328 328 329 329
321 321 318 319 318 318 324 320 322 324 320 325 323 321 331 327 319 320 314 312 313 313 314 317 324 323 327 328 324 326 325 323 324 328 332 334 337 338 340 339 340 342 341 341 341 341 341 342 341 340 339 339 338 336 337 337 337 337 337 337 334 328 328 330 329 329 329 329 331 334 335 334 332 329 328 329 330 329 326 323 320 318 311 305 303 304 303 304 310 317 322 325 327 327 327 327 328
321 322 325 325 319 319 327 324 320 320 318 319 322 321 323 323 319 318 314 313 314 313 316 321 323 324 326 323 322 325 326 328 327 330 333 335 337 339 341 340 342 342 340 341 341 342 341 342 341 341 340 338 338 337 337 336 336 337 337 337 335 331 330 332 332 330 329 328 330 333 334 333 332 330 329 329 330 329 327 324 321 317 311 306 306 306 305 309 318 322 323 326 327 326 326 326 327
321 322 328 334 330 330 334 325 321 323 318 314 317 320 321 323 318 315 315 315 314 315 320 323 319 320 320 319 325 325 325 331 330 332 334 336 337 339 342 341 342 341 340 341 341 342 341 342 342 341 340 339 338 337 337 336 336 336 337 336 335 333 332 333 333 333 330 329 330 332 333 333 333 331 330 330 331 330 327 324 321 317 310 305 305 306 306 313 322 323 324 324 325 326 326 326 326
318 319 327 335 329 331 333 321 317 319 318 317 316 318 322 319 315 314 316 315 314 316 321 320 316 317 318 322 330 325 324 332 332 334 335 336 337 339 341 341 342 340 340 341 341 342 342 342 341 342 340 340 339 338 337 336 336 336 336 336 335 334 334 334 333 333 331 329 330 332 333 333 333 332 331 330 330 330 328 324 322 317 311 304 302 303 304 313 321 322 322 323 325 326 325 325 324
319 320 325 333 328 325 324 318 321 321 317 320 316 317 320 316 314 314 316 315 314 317 319 317 317 320 321 327 331 322 324 331 332 334 336 337 336 339 341 342 343 340 341 341 341 342 342 342 341 342 341 340 339 339 338 336 336 336 336 336 335 334 333 332 332 333 332 331 331 332 333 332 332 332 332 331 331 330 328 324 321 317 311 305 301 301 301 310 318 319 319 321 323 324 322 323 323
326 330 333 339 332 321 320 320 322 323 319 320 318 318 319 314 314 315 316 315 314 317 317 315 323 327 323 326 328 319 320 329 333 334 336 337 337 338 341 343 342 340 341 341 341 342 342 342 341 341 341 341 340 339 339 337 337 336 336 336 335 334 333 331 331 333 333 332 332 332 332 332 332 332 332 331 331 330 329 325 321 317 311 305 300 300 300 303 309 312 314 316 319 319 320 320 321
325 334 346 343 330 323 325 323 318 325 325 320 318 316 315 313 314 316 317 316 315 318 317 314 320 324 324 326 323 316 318 329 332 334 336 336 337 338 341 343 342 339 340 341 341 342 342 342 341 340 340 340 340 340 339 338 337 336 336 335 335 334 333 331 331 332 333 332 332 333 332 332 332 332 332 331 331 330 329 325 321 318 313 307 301 299 299 300 301 304 307 309 311 312 312 313 314
331 338 352 331 319 324 325 321 319 325 326 321 320 313 311 313 315 317 318 317 315 317 315 312 315 318 322 325 319 313 317 328 332 335 337 336 337 339 341 341 341 339 339 341 341 341 340 341 340 340 340 340 340 340 339 339 338 337 336 335 335 335 334 331 331 332 332 333 333 333 332 332 332 332 332 331 331 330 329 326 322 320 316 310 304 300 299 299 300 301 302 303 303 304 304 304 305
333 340 350 328 315 321 321 320 320 319 320 323 321 313 312 314 316 318 318 317 316 316 312 308 314 318 318 318 318 318 318 326 331 333 336 337 338 339 340 340 340 338 339 340 342 342 340 341 339 339 340 339 340 339 339 339 338 338 336 336 334 334 334 332 332 332 332 333 333 333 332 332 332 332 331 331 331 330 329 327 324 321 320 317 312 307 302 299 299 299 300 300 300 300 300 300 300
326 332 339 330 316 318 319 318 321 320 321 323 317 314 315 313 313 316 316 318 316 312 309 308 311 315 317 316 320 320 317 325 330 331 335 338 337 339 340 340 340 338 340 339 340 341 340 340 337 336 337 338 339 338 339 339 339 338 337 337 335 334 334 333 332 332 332 332 332 332 331 331 331 331 331 331 331 330 330 328 325 323 322 322 320 316 312 307 303 300 299 299 299 300 299 299 298
324 334 339 331 318 317 317 317 321 320 321 323 315 313 316 312 312 314 312 313 314 311 312 313 310 312 315 316 315 311 314 326 329 329 333 338 337 339 340 340 341 339 341 339 339 339 339 339 337 337 335 337 340 337 338 339 338 338 337 337 335 334 334 335 334 332 332 332 332 331 331 330 330 331 331 330 331 330 330 329 326 324 323 323 322 320 318 315 312 309 304 300 299 299 299 299 299
329 343 341 327 321 320 318 317 320 321 323 323 316 314 317 315 312 312 308 311 316 314 315 314 308 308 311 312 308 306 316 327 329 329 331 335 337 338 338 340 340 340 341 340 339 338 339 339 336 338 336 335 336 337 338 337 337 337 337 337 337 335 334 335 334 333 332 331 331 331 330 330 330 331 330 330 331 331 330 329 327 324 324 324 323 322 319 317 316 315 312 307 303 301 300 299 299
342 344 332 323 323 324 323 321 318 321 323 318 316 316 318 318 314 312 310 315 317 314 315 314 310 307 307 308 306 310 322 328 328 329 330 331 334 336 336 337 338 339 340 340 339 337 339 337 335 338 337 333 334 336 337 336 338 338 336 337 337 336 335 335 333 333 333 331 331 331 331 330 330 331 331 331 331 331 329 328 327 325 324 324 324 322 320 317 316 316 315 312 309 307 306 304 302
342 340 332 331 330 322 321 323 318 316 318 317 317 315 316 316 315 313 313 317 316 315 316 314 315 313 309 307 309 318 325 328 327 326 328 328 331 332 333 334 336 337 338 339 338 337 337 335 334 337 337 336 336 337 336 335 338 337 336 336 336 337 336 335 334 333 332 331 330 330 331 331 331 331 331 331 330 330 327 327 327 325 324 324 324 322 320 317 316 315 315 314 312 311 311 309 307
328 335 336 334 332 323 318 322 320 316 316 317 316 313 315 315 314 313 314 318 315 318 320 315 318 319 314 309 310 321 325 324 325 325 325 326 329 330 331 333 334 335 336 336 336 335 335 332 331 334 336 336 337 337 335 334 335 336 337 335 335 336 335 336 334 332 332 331 330 330 331 331 331 331 332 331 330 329 327 327 327 326 324 324 324 323 320 317 317 316 315 315 314 313 313 312 311
319 329 333 326 325 322 319 321 320 319 315 316 318 314 315 314 313 314 316 318 317 321 321 317 321 323 318 310 308 316 323 322 320 321 322 322 325 327 329 331 333 333 333 333 334 333 332 331 329 331 333 333 334 336 335 332 333 336 337 334 335 335 334 336 335 333 332 331 331 330 331 331 331 332 332 331 330 328 327 327 327 326 325 324 323 323 321 318 317 317 316 316 315 315 314 313 314
318 319 321 321 321 317 318 320 318 317 314 316 318 315 315 313 314 317 317 317 320 321 318 317 319 318 316 311 306 310 316 318 317 317 318 319 320 323 326 328 329 330 330 331 331 331 331 330 329 328 329 330 333 335 334 332 332 334 335 333 334 335 335 334 334 334 333 332 332 331 331 331 331 332 332 332 330 328 327 327 326 326 325 324 324 323 321 318 318 318 318 318 316 316 315 314 314
320 317 315 319 320 317 317 318 317 317 317 318 318 315 314 315 315 316 315 317 320 316 312 315 313 309 309 308 307 308 312 315 316 316 316 317 318 320 322 323 324 325 326 327 327 329 329 329 330 328 327 328 332 334 333 332 333 334 334 334 333 333 335 335 335 334 334 334 333 333 332 331 331 333 332 332 331 329 328 328 327 326 325 324 324 324 321 319 319 318 318 318 317 316 316 315 314
325 320 315 317 317 317 317 317 317 317 318 317 316 314 314 319 317 312 314 318 319 313 305 305 303 303 306 308 309 308 309 311 315 317 316 316 316 317 319 319 320 321 322 322 322 323 324 325 326 327 327 326 329 332 333 331 332 334 334 335 335 332 334 334 334 335 334 333 334 334 333 332 332 332 332 332 332 330 328 328 328 326 325 325 324 324 321 318 319 319 319 317 316 317 316 315 315
324 319 318 317 315 317 316 317 319 318 317 315 314 316 316 317 314 312 317 320 319 313 305 304 304 305 308 313 313 307 305 308 311 315 316 317 316 315 316 316 317 316 317 317 317 318 317 318 319 322 324 325 326 328 332 331 330 334 333 333 336 333 333 333 334 334 333 334 334 333 332 333 333 332 332 332 333 331 329 328 329 327 326 325 324 324 321 319 319 319 318 316 316 317 316 315 316
318 318 320 318 317 318 316 316 320 319 317 314 315 318 317 313 312 315 319 319 316 312 312 312 311 314 313 314 312 306 305 306 307 311 313 315 315 314 315 315 315 315 315 315 315 315 315 315 315 316 318 322 325 325 330 331 330 334 332 332 334 332 331 333 334 334 333 334 334 331 331 332 333 333 332 332 332 331 329 329 329 327 326 326 325 324 322 319 320 319 318 316 316 316 315 315 315
316 320 319 318 321 320 317 317 318 318 317 315 316 319 318 313 313 316 318 314 310 314 318 314 314 320 315 312 311 305 304 306 307 309 310 311 313 313 315 315 315 315 315 314 314 314 314 313 313 313 314 317 322 325 328 330 332 332 331 333 333 331 332 333 333 333 331 333 333 330 330 332 333 333 332 333 332 330 330 330 329 328 327 327 327 326 323 320 320 319 317 316 316 314 313 313 313
315 319 318 319 323 320 316 317 317 316 315 315 315 316 317 314 314 317 317 310 308 316 321 315 315 318 313 312 311 305 303 306 307 308 308 310 311 313 314 314 314 314 314 314 313 313 313 312 311 312 314 315 319 324 327 329 332 332 331 333 332 332 334 334 332 330 330 332 332 329 330 332 332 332 332 332 331 330 330 331 330 328 328 328 327 327 323 320 320 318 317 316 314 313 312 311 310
316 319 318 322 328 321 315 316 316 314 315 315 315 316 318 317 315 316 315 309 308 314 320 318 316 315 312 312 312 307 303 305 306 306 309 310 311 312 313 314 314 313 313 313 313 312 311 310 310 313 315 315 317 322 326 328 332 331 330 331 333 333 332 333 333 331 331 332 331 331 332 332 331 331 331 331 330 330 330 331 330 329 329 329 327 327 324 320 319 318 316 315 313 312 310 308 307
317 317 319 324 328 322 314 313 314 313 315 316 315 318 326 327 320 315 312 310 311 315 319 318 315 314 313 312 312 310 304 302 305 305 308 310 310 311 312 313 313 313 313 312 312 311 310 309 312 314 316 317 317 321 325 328 331 331 330 332 333 332 331 332 333 332 332 332 331 332 332 331 331 330 330 330 330 330 331 330 329 328 328 328 327 325 323 320 318 317 316 314 312 312 309 307 307
321 315 323 328 320 323 321 314 315 314 314 314 314 318 325 330 323 314 310 309 313 319 321 317 315 313 312 312 311 311 306 302 304 305 307 309 310 311 311 312 312 312 312 311 312 311 309 310 313 315 316 317 319 321 325 328 331 331 330 331 332 331 331 332 332 332 332 331 331 331 330 329 330 330 330 330 330 330 330 329 328 327 327 327 327 324 322 319 318 317 316 315 312 310 308 306 306
328 315 328 331 317 329 331 316 315 315 313 312 314 319 321 321 320 314 308 308 311 317 320 316 315 313 311 311 309 310 307 303 303 305 306 307 309 310 310 311 311 311 311 311 311 309 308 311 315 316 316 318 319 322 325 328 330 331 330 329 331 331 330 331 331 331 331 330 329 329 328 328 329 330 329 330 330 329 329 328 327 327 327 326 324 322 321 319 318 316 315 317 314 309 306 305 303
333 318 324 330 320 328 328 315 315 315 313 312 313 319 323 321 318 313 307 307 310 315 318 316 314 312 310 309 308 308 307 305 304 304 305 306 307 309 309 310 310 310 311 310 311 309 308 312 315 316 317 318 320 323 326 328 329 330 329 328 330 329 328 330 329 329 329 328 327 326 326 328 328 328 328 328 329 328 327 327 326 326 325 323 322 321 321 320 318 317 315 315 314 310 306 304 300
332 321 321 328 324 322 323 322 317 312 314 314 313 315 319 320 320 317 311 309 311 316 320 318 312 310 308 307 307 307 306 307 306 304 305 305 306 307 308 309 309 310 310 310 310 308 308 313 315 317 319 319 321 324 325 327 328 329 328 328 329 327 327 329 328 328 327 326 325 324 324 326 327 326 325 325 326 326 325 325 325 325 324 322 322 321 320 320 318 318 315 312 312 310 306 303 299
331 327 324 325 322 318 324 327 317 311 314 315 315 315 316 316 316 315 315 312 314 319 318 315 311 309 308 307 307 306 306 307 305 304 304 305 306 306 307 308 309 309 309 309 309 308 309 314 315 317 319 320 321 323 325 326 326 328 327 326 326 324 325 327 327 326 325 325 325 323 322 324 326 324 323 322 323 325 324 325 325 323 323 322 322 321 320 320 318 317 316 312 309 307 305 303 297
328 334 335 328 323 322 326 328 320 314 314 317 317 316 317 315 314 315 315 314 315 316 313 310 310 309 308 307 307 306 306 306 304 303 304 304 305 305 306 307 308 308 308 309 309 308 311 314 315 317 318 320 321 322 323 324 324 324 324 325 324 322 324 325 324 324 324 324 323 321 322 324 324 323 323 322 322 324 323 324 324 322 322 322 322 321 319 319 318 317 316 312 307 303 302 300 296
325 331 332 327 324 326 328 324 320 314 314 321 319 316 317 315 315 315 313 313 314 315 313 311 310 309 309 309 307 307 306 306 304 303 304 304 304 305 306 307 307 308 308 309 309 308 311 313 315 317 317 319 320 321 322 322 323 321 320 323 323 321 322 323 323 323 323 324 322 320 322 324 323 323 323 322 322 323 322 322 323 322 321 320 320 319 318 318 318 317 315 311 308 303 297 294 295
328 327 323 326 325 327 326 319 318 316 315 323 321 316 318 315 314 313 311 313 315 315 314 313 312 310 309 309 308 308 307 305 305 304 302 303 304 304 305 306 307 307 308 310 309 309 312 313 314 316 317 317 319 321 320 320 322 322 321 322 322 321 321 322 323 323 322 322 321 321 321 322 322 322 322 320 321 322 321 321 321 321 319 318 318 318 317 317 316 316 314 308 307 304 297 293 295
329 327 321 325 326 323 323 319 317 316 315 324 324 318 318 316 315 314 313 313 313 313 314 313 313 312 311 310 309 308 308 307 307 305 302 301 303 303 304 306 307 307 308 310 310 310 312 313 314 316 317 317 317 319 319 319 321 321 322 321 320 320 320 322 322 321 320 320 319 319 320 320 320 321 320 320 321 321 321 321 320 319 318 317 317 316 315 315 314 314 314 310 305 301 297 295 297
326 326 323 325 325 321 323 321 318 316 315 320 322 318 317 316 316 316 314 314 314 312 313 312 311 312 311 311 311 310 309 309 308 307 303 300 301 302 303 305 306 307 308 310 310 311 312 313 314 314 316 317 316 317 317 319 319 319 320 320 319 320 319 319 319 318 318 318 318 318 319 319 319 320 320 319 320 320 320 320 318 317 316 316 316 316 313 313 313 312 312 311 306 301 296 296 299
323 323 323 325 324 322 322 322 322 322 320 318 320 323 324 324 323 322 319 319 319 314 313 314 312 310 310 311 311 311 310 309 308 309 305 300 299 301 302 304 305 306 308 310 310 311 312 313 313 314 315 316 316 315 316 316 316 316 316 315 315 315 314 314 315 316 316 317 317 317 318 318 318 319 319 319 320 319 319 318 317 316 315 315 315 315 312 310 311 311 310 310 308 304 299 298 298
325 325 323 321 322 322 321 322 323 327 329 321 318 325 335 336 332 329 327 328 329 323 320 321 316 312 312 312 311 310 310 310 309 309 306 301 299 300 301 302 303 305 307 309 310 311 312 312 313 314 314 314 314 315 315 315 315 315 315 313 311 310 309 310 313 315 315 316 316 316 316 316 316 317 318 318 318 317 317 317 316 315 314 312 311 309 306 307 309 309 309 308 307 305 303 300 298
326 325 322 319 318 319 320 321 322 328 332 319 314 323 333 332 327 324 326 327 326 322 322 322 317 315 315 314 313 312 311 310 309 308 306 302 300 300 300 301 303 304 306 308 310 311 312 312 312 313 313 312 312 313 313 314 315 315 316 316 314 313 312 312 313 314 315 316 316 315 315 315 316 316 317 317 316 316 316 315 314 312 308 304 301 301 302 305 307 307 308 307 306 304 304 302 298
330 322 321 320 317 320 322 321 322 327 328 320 318 325 327 326 324 322 323 322 323 322 321 320 317 316 317 316 315 314 313 312 310 309 307 303 300 300 300 301 302 303 305 307 309 310 311 312 312 312 311 311 311 312 312 313 315 315 315 314 314 315 316 315 313 313 315 315 314 313 312 312 313 314 315 315 314 315 314 313 310 305 300 296 296 298 302 304 305 306 306 305 304 303 303 303 298
327 316 317 320 319 323 325 325 326 324 324 325 324 322 325 331 331 327 324 323 326 327 325 322 319 318 318 318 317 315 315 313 310 310 308 302 299 300 301 301 302 303 304 307 309 310 310 310 311 311 310 310 309 311 312 312 314 314 314 313 312 312 313 313 313 312 313 313 310 310 310 310 311 312 312 312 312 311 310 308 303 297 294 294 295 298 301 303 304 305 305 304 303 302 302 301 298
318 313 318 320 321 325 327 330 330 326 326 327 326 323 324 329 330 329 325 325 329 326 322 321 321 321 320 320 320 318 318 314 311 309 305 300 300 301 301 301 302 302 304 307 308 309 310 310 310 310 309 309 309 310 312 312 312 312 313 313 312 311 310 310 310 309 309 309 307 308 309 309 310 310 310 309 308 307 306 303 298 294 293 293 294 295 297 300 300 301 301 300 300 299 297 296 295
315 320 327 326 327 328 329 329 327 327 330 325 324 326 324 326 331 330 325 326 331 326 324 326 328 332 332 330 326 323 322 318 312 309 303 299 300 301 301 301 301 302 304 306 308 308 309 310 309 309 309 309 309 309 310 311 310 311 312 312 312 312 311 310 308 305 305 305 305 306 307 308 309 309 308 307 306 305 302 298 294 293 293 293 293 293 293 294 294 294 295 294 294 294 293 292 292
319 332 332 327 330 328 328 330 326 329 332 324 320 321 321 325 331 331 325 324 325 323 326 332 333 337 342 340 330 325 325 319 313 311 306 301 300 300 300 301 301 302 304 306 307 308 309 309 308 308 307 308 309 309 309 309 309 309 310 311 312 313 312 310 309 307 305 305 304 305 306 306 307 307 307 307 305 303 299 294 292 292 292 292 292 292 292 292 292 292 292 292 292 292 292 292 292
322 331 329 326 330 327 327 329 327 329 326 317 317 319 320 322 325 324 323 322 322 320 320 325 326 328 332 332 326 322 322 319 316 313 309 305 302 298 298 300 301 301 304 305 307 307 307 308 308 307 307 306 307 307 307 307 308 309 309 310 310 311 311 310 310 309 308 307 307 307 306 306 305 305 306 306 305 303 298 293 292 292 292 292 292 292 292 292 292 292 292 292 292 292 291 291 291
321 326 327 328 329 330 335 331 324 325 322 315 314 319 323 323 322 321 321 318 319 319 318 319 320 320 322 321 319 316 314 313 314 313 309 306 301 297 298 299 300 301 303 304 306 306 306 307 307 307 306 305 306 306 306 306 307 309 309 309 309 310 310 310 311 310 309 309 309 309 308 307 306 305 305 305 305 302 296 292 292 292 292 292 292 292 292 292 292 292 292 292 291 291 291 291 290
320 323 324 327 330 332 337 334 329 328 327 320 315 320 328 330 325 322 320 319 321 322 320 317 316 315 315 316 316 315 312 310 311 309 307 303 298 297 299 299 300 301 302 304 305 306 306 306 306 306 305 305 305 305 305 305 306 307 308 307 308 310 309 310 311 311 311 311 310 309 309 308 306 305 304 304 304 299 293 291 291 291 291 291 291 292 291 291 291 292 291 291 291 290 290 290 290
320 322 322 325 327 326 324 322 324 326 327 326 321 322 328 328 322 319 318 322 326 324 320 320 320 314 313 316 318 317 313 310 311 310 306 301 297 297 299 299 300 300 301 303 304 305 305 305 305 305 305 305 304 304 304 304 305 307 307 306 307 308 308 308 309 309 310 311 310 309 308 307 305 303 303 303 300 294 290 291 291 291 291 291 291 291 291 291 291 291 291 291 290 290 290 290 290
320 320 323 321 318 325 326 318 315 316 321 327 324 324 328 324 321 321 320 323 325 322 320 323 323 316 315 321 322 319 315 312 313 312 307 301 297 297 298 298 299 300 300 302 303 305 305 305 305 304 304 304 303 303 304 305 306 306 306 306 307 307 307 307 308 309 309 308 307 308 307 305 302 302 303 301 295 290 290 290 290 290 290 290 291 291 291 291 291 291 291 290 290 289 289 289 289
322 324 323 318 315 324 329 324 324 323 324 329 325 324 328 326 324 323 320 321 322 319 319 320 319 317 319 323 323 319 315 314 314 311 305 299 296 296 298 298 299 300 300 301 303 304 305 304 304 304 303 303 303 303 303 304 305 305 305 305 306 306 307 307 308 308 308 306 305 304 303 301 300 301 301 297 291 289 290 290 290 290 290 290 290 290 291 291 290 290 290 290 290 289 289 289 289
320 324 322 321 325 327 324 325 332 331 328 332 329 322 322 323 324 324 321 328 332 327 327 327 323 321 323 326 331 326 318 317 317 310 304 300 296 296 297 298 299 299 300 301 302 303 304 304 304 303 303 303 303 303 302 303 303 304 305 306 306 307 306 306 306 306 306 305 304 301 299 298 298 299 296 292 289 290 289 289 289 289 289 289 290 290 290 290 290 290 290 289 289 289 289 289 288
315 318 317 319 325 326 324 323 327 328 328 331 330 325 324 323 324 325 321 327 336 336 334 333 330 329 331 334 340 337 327 324 321 313 307 300 295 295 297 298 298 299 299 300 301 302 303 303 303 303 302 302 303 303 302 302 303 303 304 305 306 306 306 306 306 305 304 303 303 300 296 296 296 294 292 290 289 289 289 289 289 289 289 289 289 289 290 290 290 289 289 289 289 288 289 288 288
317 319 319 319 320 321 324 322 322 327 330 331 330 325 324 327 325 324 322 323 329 333 333 334 336 337 338 338 342 341 330 324 321 315 310 302 295 295 297 297 298 298 299 299 299 300 301 302 302 302 301 301 302 303 303 303 303 303 302 303 304 304 304 305 305 303 302 301 300 296 293 293 292 290 290 289 289 289 289 289 289 289 289 289 289 289 289 289 289 289 289 289 288 288 288 288 288
318 320 320 320 319 320 322 321 320 323 325 328 330 324 323 330 324 320 323 323 321 324 327 333 340 342 343 343 340 334 325 322 319 315 310 302 295 294 296 297 297 298 298 298 299 299 300 301 301 301 301 301 301 302 302 303 303 302 301 302 302 302 302 302 302 301 300 299 297 293 290 290 290 289 289 289 289 289 288 288 288 288 288 288 289 289 288 289 288 288 288 288 288 288 288 287 287
Wind_Speed
8 8 8 6 6 3 3 6 3 2 4 2 1 1 2 2 1 2 2 2 0 1 2 2 2 3 3 3 6 6 4 3 5 4 3 3 2 8 12 7 8 12 14 14 13 13 12 13 13 13 14 14 14 14 13 13 13 13 14 13 14 14 13 14 16 16 15 15 15 15 15 14 16 18 19 20 22 23 24 24 24 23 21 21 20 20 19 19 19 18 17 17 18 18 17 17 18
7 7 7 5 6 4 1 4 3 3 5 2 1 2 2 2 1 5 5 3 3 2 2 4 6 6 5 5 6 5 2 1 4 3 1 2 3 7 11 9 9 10 12 13 13 13 13 13 13 13 13 13 13 14 13 13 13 12 13 13 13 13 13 14 16 16 16 16 15 15 14 14 15 17 18 19 21 23 23 23 24 23 21 21 21 20 19 19 19 19 19 19 19 18 17 18 18
7 6 6 3 4 4 2 4 3 1 5 2 3 3 1 1 4 6 7 6 6 5 3 3 5 4 4 4 2 2 1 1 2 0 0 3 4 5 9 11 12 11 12 13 13 13 13 13 13 12 13 13 13 13 12 12 12 12 13 12 12 13 13 15 16 15 16 16 16 15 14 13 15 16 18 19 21 22 22 22 23 23 22 21 21 20 19 19 18 19 20 20 20 19 18 18 18
7 6 7 1 2 4 4 4 2 4 3 3 2 4 2 4 7 6 6 6 5 4 1 1 3 1 3 3 0 1 1 0 1 0 1 3 4 5 8 11 14 14 13 14 14 13 13 13 13 13 13 13 13 13 12 12 12 11 12 12 12 12 14 14 15 15 15 16 15 15 14 13 14 15 16 18 20 20 20 21 22 22 22 21 21 20 20 19 19 19 20 21 21 19 18 18 17
4 6 7 2 2 2 3 3 3 4 3 4 2 4 5 6 7 5 4 3 4 2 1 2 2 1 2 2 1 2 1 1 1 0 1 3 5 6 9 13 15 15 14 14 14 14 14 14 13 13 13 13 13 13 12 12 12 11 11 11 11 12 13 14 14 14 14 14 15 15 14 13 12 14 15 17 18 19 20 21 22 22 22 21 20 20 20 19 19 19 20 21 21 20 18 18 17
2 4 8 6 4 1 3 3 2 1 4 5 3 5 6 6 7 5 2 1 3 3 3 1 1 2 1 1 1 2 2 1 0 0 3 5 5 6 11 14 15 15 15 15 14 14 14 13 13 13 13 12 12 12 12 11 11 11 10 10 10 11 12 12 13 14 14 13 14 14 13 12 12 13 14 15 16 18 19 20 21 21 21 20 20 20 20 20 19 19 19 21 20 19 18 17 16
1 1 5 7 3 2 4 3 4 1 2 4 3 4 6 6 5 5 2 0 1 1 2 0 2 4 1 1 1 1 0 1 1 2 4 7 7 8 11 13 13 14 16 16 14 14 13 12 12 13 13 12 12 12 12 11 11 11 10 9 10 11 11 11 12 13 13 12 13 13 12 12 11 12 13 14 15 17 19 20 20 19 19 19 20 19 19 19 19 19 19 20 20 18 18 17 16
4 1 1 5 3 4 4 3 2 2 1 2 3 5 6 6 5 6 3 2 2 1 2 1 1 3 1 1 1 2 2 2 2 3 5 7 8 10 12 13 12 12 16 16 14 13 12 12 12 13 13 12 12 12 11 11 11 10 10 9 10 10 10 10 11 12 12 11 11 11 11 11 11 11 12 13 14 16 18 19 19 18 18 18 19 19 19 19 18 18 19 19 19 18 17 16 16
6 2 1 4 3 3 3 2 1 2 2 4 3 4 4 4 4 3 2 1 1 2 3 3 1 1 1 2 2 3 2 2 3 3 5 7 9 12 13 13 12 13 16 15 14 14 12 12 11 12 13 12 12 12 11 11 11 10 10 9 9 10 10 10 10 11 11 10 10 10 10 10 10 10 11 12 14 16 18 19 18 17 17 17 18 18 18 19 18 18 18 19 18 17 17 16 16
5 3 2 4 3 4 3 1 1 2 3 5 4 4 3 4 4 1 3 2 1 4 3 2 2 1 2 2 2 1 2 4 4 3 5 9 10 13 14 14 12 13 17 16 14 13 12 12 11 11 12 12 12 11 11 11 11 11 10 9 8 9 9 9 9 10 10 9 9 10 9 9 9 10 10 11 13 14 17 18 17 17 16 16 17 17 17 18 18 18 18 18 18 17 17 16 16
3 4 3 4 4 2 2 2 3 3 4 5 4 4 4 5 4 1 2 3 0 2 2 0 2 3 2 1 2 1 3 5 5 5 6 10 12 13 14 13 12 12 17 17 13 12 11 11 11 11 11 11 12 11 11 11 11 11 10 10 9 8 8 8 9 9 8 8 9 9 9 9 9 9 10 10 12 13 15 17 17 16 16 16 17 17 16 17 17 17 17 17 17 16 16 15 14
2 3 4 4 3 3 4 4 3 4 6 4 2 3 3 5 4 3 3 4 1 1 2 2 2 4 3 3 3 1 3 6 6 7 7 10 13 15 14 14 12 12 16 16 13 12 11 10 11 10 10 11 11 11 10 10 11 11 11 10 10 9 8 8 8 8 8 8 8 8 8 8 9 9 10 10 10 12 14 15 16 16 16 17 17 17 17 16 16 16 16 16 16 15 15 14 14
3 2 5 3 3 3 3 5 2 3 5 3 3 2 3 5 3 6 7 4 3 3 3 4 3 3 2 3 2 2 4 8 8 9 8 10 13 15 15 15 14 13 15 14 13 12 11 11 11 10 10 10 11 11 11 10 10 11 11 10 10 10 9 8 8 8 7 7 7 8 8 8 9 8 9 9 10 11 12 14 15 16 17 17 18 17 16 16 16 16 16 16 16 16 16 15 15
3 3 5 3 2 3 4 3 1 2 3 5 3 1 2 2 3 6 7 4 4 5 1 3 4 3 1 2 3 4 7 11 11 11 10 11 12 14 15 15 15 14 15 15 14 13 12 12 12 10 11 10 10 11 11 10 10 11 11 10 10 10 9 9 9 8 7 6 7 8 8 8 8 8 8 8 9 10 11 13 14 15 17 18 18 17 16 16 16 16 16 16 16 17 17 17 17
4 3 5 4 2 2 3 2 2 5 4 5 2 2 2 1 3 4 5 6 4 4 0 0 2 2 2 3 3 5 10 15 13 12 12 13 13 14 15 15 15 14 15 16 16 15 13 12 13 12 11 10 10 11 12 11 10 10 11 11 11 11 10 10 10 9 7 6 7 7 8 8 9 8 8 8 8 9 9 11 13 14 16 17 18 17 17 16 16 16 16 16 17 17 18 18 18
3 4 5 4 2 2 4 2 3 3 5 5 1 1 3 2 2 3 3 3 2 1 2 1 1 1 3 5 4 4 12 18 15 14 14 14 15 16 15 16 17 16 17 17 18 17 14 15 14 14 13 10 11 12 12 13 11 11 11 12 12 11 11 11 11 10 8 7 7 7 8 8 9 9 9 8 8 8 8 10 12 13 14 16 17 17 18 17 18 17 17 16 16 17 17 17 17
3 4 5 3 3 3 5 4 4 4 5 5 4 2 5 1 1 1 2 4 4 0 3 2 1 0 4 3 6 3 17 19 16 16 15 15 15 17 17 17 18 19 18 18 19 16 15 15 12 14 16 13 13 12 12 13 11 11 12 12 13 13 12 12 11 11 10 9 8 8 8 8 9 9 9 9 9 8 8 9 11 12 14 16 17 18 18 18 19 19 18 17 16 16 16 16 17
5 4 4 3 4 4 6 8 7 5 3 5 4 3 7 4 2 1 1 4 4 1 3 2 4 3 3 3 1 10 20 19 18 18 17 16 15 15 16 17 18 19 19 19 20 18 17 16 12 13 15 14 15 15 13 12 11 11 12 12 13 14 13 13 12 12 11 11 10 9 9 9 9 9 9 9 9 9 8 10 11 11 12 14 16 17 18 18 19 19 19 18 17 17 16 17 17
4 3 4 3 6 5 6 8 6 2 1 4 3 1 4 5 4 2 1 2 3 0 3 4 6 5 1 1 7 14 18 18 19 18 19 19 17 17 16 17 18 18 20 19 20 20 20 18 15 13 13 13 15 18 18 14 14 13 13 14 13 14 14 13 13 13 12 11 11 10 10 10 9 9 9 9 10 10 9 10 11 11 12 13 15 16 17 18 18 19 19 19 19 18 18 19 19
2 4 3 5 6 4 4 7 6 4 3 5 3 1 1 3 2 1 2 1 1 3 5 1 4 8 4 3 9 13 14 17 17 18 20 20 20 20 19 19 20 19 19 19 19 19 20 20 18 15 14 14 13 17 19 16 17 14 14 15 14 14 15 14 14 13 12 12 11 10 10 10 10 10 10 10 10 10 9 10 10 10 11 12 13 15 16 16 18 19 19 19 19 19 20 20 20
2 4 3 5 4 2 3 6 6 4 4 5 4 2 0 3 2 1 5 4 4 7 7 7 9 9 8 6 9 13 14 15 16 17 18 19 20 21 22 22 21 20 19 19 19 19 19 20 21 19 18 18 14 14 17 17 19 17 15 16 14 14 15 15 15 14 13 11 11 11 11 12 11 11 12 12 12 11 11 11 10 10 11 11 12 13 14 15 16 18 18 18 18 19 20 20 20
3 1 3 4 3 1 2 5 5 4 4 5 5 4 3 1 1 2 7 6 6 6 6 8 9 8 10 10 11 12 12 13 14 16 18 19 20 21 22 21 21 21 21 21 20 20 20 20 21 21 20 20 17 14 17 18 19 19 17 15 15 15 16 16 15 15 13 11 10 11 12 12 13 13 13 14 13 12 13 11 11 11 11 10 10 11 14 14 15 17 17 18 18 19 19 20 20
3 1 1 3 3 0 0 2 4 5 7 6 5 3 1 2 2 2 7 9 8 5 4 6 7 7 11 11 12 11 11 13 16 19 20 21 22 22 22 21 21 22 21 21 20 20 20 20 21 21 21 21 19 15 17 20 19 18 18 17 18 18 17 18 16 15 14 11 10 12 13 12 13 14 14 15 14 12 13 11 11 13 12 11 9 8 12 14 15 16 17 18 19 19 19 19 20
6 1 1 2 4 2 1 1 3 5 6 5 4 2 2 3 3 1 4 11 8 4 4 5 6 7 11 10 11 12 13 15 18 20 21 21 22 21 21 21 21 20 21 20 20 20 19 19 20 21 21 22 23 19 16 18 20 19 20 21 20 20 19 19 18 16 15 14 13 13 13 12 12 15 16 17 16 13 13 12 12 15 14 12 9 8 12 15 15 16 16 18 19 19 18 18 18
5 2 2 1 1 3 2 3 4 4 3 2 4 2 2 5 3 1 8 12 7 4 2 1 2 6 9 9 10 10 12 15 17 18 19 20 19 18 19 19 19 20 20 20 19 18 18 18 18 19 21 22 23 23 19 17 18 20 22 22 20 19 18 19 19 18 17 16 16 16 15 12 12 14 15 17 18 14 14 13 12 16 16 13 12 10 12 15 15 15 16 18 19 18 18 16 16
1 3 1 1 2 5 2 3 5 3 1 2 3 2 4 2 1 4 10 8 4 1 4 4 5 7 7 8 9 10 10 14 17 17 19 19 18 18 20 20 20 21 20 19 18 17 16 17 17 18 20 21 20 23 23 18 19 20 20 24 23 18 17 19 19 18 18 15 15 16 15 13 13 13 13 16 19 14 14 14 13 16 17 15 14 12 14 15 15 15 16 18 18 18 18 15 15
2 4 3 3 3 5 3 2 4 3 0 2 3 4 5 3 1 5 6 3 1 2 3 2 3 6 7 6 7 9 10 14 17 16 16 16 19 21 22 22 23 22 20 19 18 17 16 16 17 18 19 21 21 22 24 21 21 22 21 22 21 20 19 22 22 17 17 17 15 15 15 14 14 12 12 16 18 14 14 16 15 16 17 17 16 14 16 16 15 16 17 18 18 19 19 16 15
2 3 3 4 5 4 4 3 4 2 1 3 4 2 5 4 1 6 3 3 1 2 2 2 3 5 6 6 6 7 10 14 15 15 17 20 22 24 24 24 24 22 20 19 17 16 16 17 17 17 17 20 22 23 24 23 22 23 21 19 19 21 22 24 23 16 17 20 17 16 16 15 13 11 13 17 17 15 16 17 16 15 16 17 16 15 17 17 17 18 19 19 19 20 20 18 17
2 2 1 6 8 4 3 2 3 1 1 3 4 2 6 3 7 7 2 2 2 2 4 4 5 6 5 6 5 6 10 12 14 17 21 23 23 24 25 25 23 22 20 18 17 16 16 15 14 13 13 17 22 24 24 24 24 22 20 20 20 20 19 21 21 18 20 20 15 17 18 14 12 11 12 15 17 17 18 17 16 15 16 16 15 16 18 20 21 21 21 20 19 20 20 21 20
1 3 2 3 7 5 3 2 1 2 2 1 3 2 6 8 12 6 2 2 3 1 6 5 5 5 5 6 5 6 9 12 15 19 23 22 22 22 23 23 22 21 19 18 17 16 15 12 10 10 10 14 19 22 23 23 24 22 21 22 21 19 20 22 21 19 20 17 14 16 15 11 13 13 12 14 16 18 19 17 15 16 17 16 15 18 21 23 23 23 22 21 20 19 21 21 20
1 1 2 2 2 4 5 1 3 5 1 2 4 2 6 10 11 5 3 3 5 6 8 6 6 5 5 6 6 7 9 13 16 19 22 22 22 22 22 22 21 21 19 18 18 15 13 11 9 9 10 13 17 19 22 23 23 22 21 20 19 19 21 21 18 17 17 16 15 14 10 9 16 18 16 16 16 16 17 17 17 17 17 17 17 19 23 25 24 23 22 22 21 20 21 21 20
3 0 2 3 1 5 8 2 4 4 1 3 5 3 7 10 10 6 3 2 4 7 8 6 7 7 6 6 7 7 8 13 17 20 23 23 24 23 23 22 21 21 20 19 17 15 13 11 10 10 11 14 17 19 21 23 23 23 21 21 22 22 21 18 17 18 17 16 14 12 10 12 16 18 18 18 16 17 18 18 17 16 15 17 19 21 23 24 24 24 23 19 19 22 22 22 22
4 1 2 2 1 3 6 2 2 0 1 1 1 3 4 5 7 6 3 2 3 5 8 8 8 8 7 6 7 7 8 10 14 21 26 25 25 25 24 22 21 20 20 18 17 15 13 13 12 12 13 15 17 20 22 23 23 23 23 24 23 21 19 18 18 19 18 15 13 10 10 12 14 13 12 14 14 17 17 15 14 13 14 18 21 23 23 23 23 24 23 19 18 22 23 24 24
4 2 1 3 2 2 3 3 3 1 2 2 2 3 7 7 7 7 3 3 3 6 10 9 8 7 7 7 7 8 8 8 11 21 27 27 26 26 24 22 21 20 19 18 17 15 14 14 14 14 16 16 18 21 22 24 24 23 24 23 22 21 20 20 20 19 18 15 13 10 10 12 13 10 10 11 13 14 13 14 14 15 17 20 22 24 24 24 22 19 21 22 20 23 25 24 25
3 2 1 2 2 2 3 4 2 2 1 3 3 4 11 13 11 10 6 5 5 9 10 8 7 7 7 7 8 9 9 10 16 22 23 24 26 26 24 22 21 20 19 18 17 15 15 16 16 17 19 18 20 22 23 24 24 24 23 19 20 23 22 21 21 19 17 14 12 11 13 16 15 13 12 12 13 15 15 17 18 19 21 21 22 24 23 23 21 18 19 24 24 23 23 24 25
5 5 4 4 3 3 5 5 5 2 1 4 7 7 11 12 11 11 8 5 6 10 9 8 8 7 8 8 9 10 10 13 18 19 19 21 25 26 25 24 22 21 20 19 17 16 17 18 19 20 21 21 22 23 24 25 24 24 24 21 20 21 20 20 18 16 15 12 10 10 14 18 15 14 17 14 14 19 21 23 22 21 21 21 22 22 21 21 21 20 21 25 27 25 24 24 25
6 5 4 4 4 4 5 3 5 2 2 6 7 7 11 11 11 12 8 2 5 10 10 10 10 9 9 10 11 11 12 13 12 13 17 20 23 25 25 25 24 23 22 21 19 19 20 21 22 23 23 24 25 24 25 26 26 25 24 24 22 20 18 17 15 14 12 10 9 9 14 19 16 17 20 14 15 22 24 25 24 22 20 19 18 18 19 20 21 22 24 26 25 26 28 27 25
5 4 1 2 3 5 6 2 4 1 3 5 3 4 11 12 12 12 7 4 8 11 11 13 13 12 11 11 13 12 11 10 7 9 15 18 21 24 26 26 27 27 26 24 22 22 23 23 24 25 25 25 25 26 27 27 27 25 22 22 23 21 20 19 17 16 14 12 12 12 16 19 17 18 18 13 17 22 23 23 23 21 19 17 17 17 19 21 22 23 26 27 24 26 29 28 26
4 3 1 3 3 4 6 3 5 2 3 4 5 4 10 12 12 12 10 10 11 11 11 12 12 12 12 11 12 12 10 9 8 9 12 17 21 23 26 28 30 30 28 27 25 24 25 26 26 27 27 26 26 26 27 26 25 24 23 22 23 22 21 21 20 18 16 14 14 16 18 18 16 18 17 17 21 22 21 21 19 18 18 18 19 21 22 23 23 24 26 27 28 29 27 26 23
2 3 3 3 3 1 4 4 4 2 1 2 4 5 9 11 11 12 12 10 9 10 11 12 12 13 15 12 9 10 12 12 11 8 9 15 19 22 27 30 31 30 29 29 28 27 28 29 28 28 28 27 27 27 27 27 25 24 23 23 23 22 21 21 20 18 17 15 16 18 21 19 20 23 21 21 23 22 21 20 18 18 19 20 21 23 24 24 24 26 27 27 30 30 27 22 15
3 5 5 4 5 5 5 4 4 3 3 2 3 6 7 7 8 10 7 5 6 8 9 12 13 13 13 10 9 10 11 11 11 9 9 12 18 24 29 30 30 30 31 31 31 31 31 30 29 28 28 28 28 28 28 28 27 26 24 23 23 21 20 21 21 20 18 17 17 20 23 23 24 26 24 22 22 22 21 19 18 20 21 21 22 23 24 24 26 27 27 28 28 27 27 21 13
4 5 9 10 8 6 3 3 5 4 4 3 4 3 6 5 6 9 6 5 8 6 6 12 13 10 9 9 12 12 10 10 10 9 10 13 19 24 26 28 29 31 33 33 32 32 31 30 29 28 28 29 29 29 29 28 27 27 27 26 25 22 22 22 21 21 19 19 20 22 23 24 24 25 24 22 22 22 21 19 20 21 21 22 23 23 24 26 27 28 27 27 26 24 26 23 17
2 5 8 10 6 4 3 1 2 1 4 3 2 1 6 7 7 10 7 7 11 9 9 13 12 9 8 9 10 9 9 9 8 8 9 12 18 20 23 28 31 33 33 31 30 30 30 29 30 29 29 30 30 30 30 29 28 28 28 28 27 26 24 23 22 21 20 21 23 23 24 24 24 24 23 23 23 23 21 21 21 21 22 23 23 23 25 27 28 28 27 25 23 22 23 23 22
3 4 5 6 6 6 5 5 3 3 3 3 2 4 3 7 8 7 5 7 11 12 13 14 12 11 10 9 10 9 8 8 7 8 9 10 16 20 24 29 31 31 29 27 28 29 29 29 30 30 30 31 31 30 30 29 29 28 28 28 27 27 26 25 24 22 22 24 25 25 25 25 24 24 23 24 24 23 22 23 23 23 23 24 23 24 26 27 27 27 26 24 21 20 19 19 22
4 2 6 6 6 5 5 5 2 1 3 4 1 4 2 7 7 5 3 4 9 12 15 14 12 11 10 10 9 8 7 7 7 9 9 11 17 23 25 26 27 27 27 28 28 29 29 28 28 30 30 31 31 31 30 30 30 29 28 29 27 26 26 26 26 25 25 26 27 27 26 26 25 25 25 25 25 25 24 24 25 25 25 25 24 25 26 26 26 26 25 23 20 19 17 16 20
4 6 7 6 6 5 5 4 3 4 3 7 6 6 3 6 5 3 2 2 8 12 12 11 10 10 9 8 8 6 5 5 7 7 8 12 17 21 22 22 24 26 27 28 27 28 29 29 29 30 31 31 31 31 32 31 30 30 30 30 29 27 26 26 26 27 28 28 28 28 28 27 27 27 27 27 27 26 26 26 27 27 26 26 26 26 27 26 25 24 23 21 20 20 19 17 17
6 6 6 7 6 5 4 2 3 3 5 8 6 10 7 4 5 4 3 4 7 9 8 7 8 8 8 6 6 6 5 4 5 6 6 10 13 15 18 19 22 24 26 27 27 28 30 31 31 31 32 33 33 32 32 32 32 32 32 32 31 29 27 27 28 29 29 29 29 29 28 28 28 28 29 29 29 28 28 28 29 29 28 27 27 27 27 26 25 24 23 22 21 21 20 18 16
5 4 5 4 3 4 4 4 4 1 6 5 1 6 7 5 6 5 6 7 7 7 7 8 9 8 7 6 5 5 5 4 4 5 5 5 7 11 15 18 20 23 26 28 28 29 31 32 32 32 33 34 34 34 33 33 33 33 33 33 31 29 27 28 30 32 32 31 30 29 29 29 29 29 30 30 31 30 31 31 31 30 29 29 28 27 27 26 25 25 23 22 21 20 19 18 17
4 4 6 4 2 3 3 3 0 3 7 4 1 1 3 7 9 8 10 14 11 9 9 9 10 10 8 7 6 5 4 4 4 5 5 5 6 10 15 18 21 24 27 29 29 30 31 32 33 33 34 34 34 34 34 34 34 34 33 32 30 29 28 29 32 34 33 32 30 29 29 30 31 31 32 33 33 33 33 33 33 32 30 29 28 27 27 26 25 24 23 22 21 20 19 17 16
4 5 6 4 2 1 3 3 1 4 6 3 2 1 2 5 7 10 16 18 13 9 10 10 10 10 10 9 7 7 6 5 5 5 5 5 7 10 15 19 22 25 27 29 30 30 31 31 32 33 33 33 34 35 35 35 35 35 33 32 31 30 30 31 33 34 32 31 30 30 30 31 32 34 35 35 35 35 35 35 34 32 31 30 29 27 26 25 24 24 23 22 21 20 19 17 16
5 4 5 5 5 5 4 3 3 4 4 3 3 2 3 4 4 7 12 12 9 8 8 8 8 9 7 8 9 9 9 6 5 6 6 6 9 13 16 20 23 25 27 29 30 31 31 31 32 33 32 33 34 35 35 35 35 34 33 32 31 32 32 33 33 32 30 29 30 31 32 33 34 35 36 36 36 37 37 36 34 32 31 30 29 27 26 26 25 24 23 23 22 21 19 17 15
2 2 4 3 5 5 1 2 5 3 2 3 2 4 5 5 6 8 8 8 9 8 6 6 9 7 3 6 9 9 8 5 4 6 6 7 10 15 17 20 23 25 27 30 31 32 32 32 33 33 33 34 35 36 36 35 35 34 33 32 32 33 34 34 33 32 30 30 32 33 34 34 35 36 37 37 38 39 38 37 35 33 31 30 29 27 27 26 25 24 24 23 22 21 19 17 15
2 3 4 4 3 6 3 1 1 4 1 4 2 5 5 3 7 10 8 10 11 8 6 7 9 5 3 7 9 8 8 5 5 6 6 7 10 14 17 20 22 25 28 31 32 33 34 34 34 34 34 34 36 37 37 36 35 34 33 33 33 34 34 33 31 30 30 31 34 35 35 35 37 38 39 39 40 40 38 37 35 34 32 31 29 28 27 26 25 24 24 23 23 21 19 17 15
5 4 6 2 2 3 3 1 2 3 2 5 2 6 5 2 5 6 2 7 12 12 10 10 9 5 6 9 9 9 7 5 6 6 6 6 9 13 17 20 24 26 29 31 33 33 34 34 35 36 35 36 37 38 38 37 36 35 34 34 35 35 34 32 30 29 30 33 35 36 37 38 39 40 41 41 41 41 39 37 35 34 33 31 30 29 28 27 26 25 24 23 22 21 20 18 16
5 4 4 4 2 2 2 2 2 1 3 4 4 5 4 5 6 3 2 8 10 11 10 10 9 7 8 9 9 9 6 4 5 5 5 6 8 13 17 20 23 26 28 30 32 32 32 33 34 35 36 36 37 37 37 36 35 35 35 35 36 35 33 31 30 30 32 35 37 38 39 41 42 42 42 43 43 41 40 38 37 35 34 32 31 30 28 27 27 26 25 24 22 21 19 18 17
3 2 2 3 2 4 3 3 3 3 3 3 4 5 4 7 7 7 10 11 9 9 9 7 8 8 8 8 7 7 5 5 5 5 6 6 8 13 18 20 23 25 27 28 30 32 33 33 33 34 34 34 35 37 37 36 35 35 35 36 36 35 33 31 31 33 35 36 38 40 42 43 43 44 44 44 43 42 41 39 38 36 35 34 32 31 29 28 27 26 25 24 23 21 19 18 17
4 4 5 3 1 2 1 1 2 4 3 2 2 6 7 5 5 9 12 11 11 11 9 7 8 8 8 7 7 6 5 5 5 5 6 6 8 13 16 19 21 23 24 26 29 32 33 33 33 33 33 34 36 37 37 37 36 36 36 36 36 36 34 33 33 35 36 37 39 42 43 44 44 45 45 45 44 42 41 40 39 37 36 34 33 32 30 29 28 27 25 24 23 22 20 18 17
7 6 8 9 6 4 3 3 2 2 2 4 3 6 10 5 5 8 9 9 10 10 8 7 7 8 7 7 7 6 5 5 5 6 6 5 7 12 15 18 20 21 24 26 28 30 32 33 33 33 34 35 36 37 37 37 36 37 37 36 36 36 35 35 36 36 36 38 41 43 44 45 45 45 46 45 44 43 41 40 38 37 36 34 33 32 31 30 29 28 26 25 23 22 21 19 18
Wind_Direction
333 335 330 342 348 347 12 50 78 346 69 89 358 92 228 237 204 167 228 273 30 287 216 110 100 106 90 136 156 162 149 149 163 143 199 220 134 169 175 153 150 162 157 153 149 144 138 130 125 121 120 120 118 115 116 117 115 113 108 105 102 102 104 101 98 97 98 95 94 92 88 85 87 83 74 70 68 65 63 60 57 57 64 68 69 71 74 77 78 80 81 83 82 81 80 79 80
333 336 336 345 4 16 267 63 90 341 54 89 277 161 242 303 134 181 204 213 182 183 143 111 98 85 62 82 111 112 58 248 174 165 213 140 116 163 173 170 165 166 162 156 153 148 139 131 127 123 123 122 118 119 120 118 116 115 111 107 102 99 101 101 101 100 98 94 92 93 91 86 85 81 73 71 69 66 64 62 60 59 65 70 70 69 72 74 78 81 81 83 82 82 81 81 82
333 335 348 359 15 35 78 46 86 68 75 120 254 238 262 131 187 201 215 205 172 152 139 108 91 76 55 56 71 91 49 290 171 223 319 135 135 156 178 185 177 176 169 162 159 153 144 137 136 135 132 129 125 126 125 121 120 118 114 109 103 100 104 105 102 100 98 97 94 94 92 86 85 78 71 72 69 66 64 63 63 62 65 71 71 69 69 70 76 81 82 82 82 81 82 83 84
336 350 352 15 54 34 60 41 120 116 111 174 225 249 232 177 197 215 228 206 169 129 93 58 70 24 79 81 228 98 96 218 132 148 158 138 144 159 173 176 177 178 173 170 163 155 149 147 149 146 141 136 133 133 131 127 124 119 115 111 104 103 108 106 100 97 97 97 97 97 94 89 84 76 73 74 70 66 64 64 64 64 65 70 72 69 67 68 72 80 83 83 82 82 83 85 85
336 12 9 117 101 41 91 73 109 102 171 184 154 246 243 196 189 208 235 220 211 183 157 78 75 288 86 107 162 121 187 179 41 61 145 140 140 156 155 158 170 173 175 174 165 160 158 157 156 151 145 140 138 137 135 131 127 121 118 113 106 110 113 105 100 98 98 100 100 99 98 94 86 79 76 74 71 67 65 64 64 64 65 69 72 71 69 67 70 79 83 83 83 83 86 88 87
332 44 38 78 90 117 116 90 111 101 207 170 144 240 234 198 186 185 209 306 259 202 174 73 138 160 76 286 162 163 204 137 72 132 148 153 151 160 151 154 165 172 176 173 169 168 164 164 160 155 150 144 142 139 139 136 132 127 122 118 114 118 117 107 101 100 99 102 103 103 103 100 91 82 78 76 72 68 65 64 65 64 66 70 72 72 71 69 71 77 80 82 82 84 87 89 89
56 95 35 65 47 37 96 114 160 173 189 165 171 221 206 200 185 151 158 87 44 179 149 7 132 119 86 293 155 202 117 100 179 153 157 161 162 162 154 159 167 172 178 174 174 172 165 168 163 160 155 149 148 142 142 141 139 134 128 125 119 121 118 108 103 102 100 102 105 107 106 101 93 85 81 77 72 68 65 64 66 65 67 71 73 73 73 73 73 75 77 79 80 84 87 88 87
67 106 15 76 33 25 85 99 178 187 159 222 233 218 202 195 172 139 172 178 158 222 112 184 101 103 228 50 156 223 60 104 149 145 163 161 166 162 159 172 173 172 178 175 175 174 166 170 167 164 160 155 154 148 147 146 145 140 134 130 124 123 118 112 109 106 102 103 105 104 104 100 94 87 81 78 72 68 64 64 66 66 69 73 76 76 76 76 75 75 77 79 80 84 86 86 85
53 45 70 79 73 40 55 33 285 229 271 278 265 238 220 176 156 134 168 147 140 161 157 215 190 98 217 89 242 265 59 129 140 139 159 163 170 165 167 182 185 176 179 177 175 177 170 172 170 166 166 163 159 154 153 150 148 145 140 135 129 127 124 119 113 109 107 106 105 103 102 100 94 86 81 79 73 68 64 63 65 66 70 75 78 79 81 81 77 78 80 80 80 83 85 85 85
36 31 125 77 80 53 32 353 272 250 262 273 265 241 215 161 151 136 151 134 146 150 185 235 93 78 158 151 254 302 117 156 147 144 160 166 170 169 174 188 195 182 180 181 177 177 173 173 172 170 172 168 166 161 157 156 153 149 145 140 135 132 130 127 117 114 113 110 108 108 106 102 96 90 86 80 74 70 65 64 66 67 72 78 81 82 83 84 82 84 87 85 82 85 88 88 87
28 0 97 77 76 94 173 202 261 266 277 300 290 245 201 161 134 95 94 118 210 128 173 203 105 144 117 262 256 159 153 164 159 154 159 165 167 171 177 186 195 183 180 183 179 179 176 175 175 176 179 174 171 167 162 161 158 156 152 146 145 142 138 134 128 127 123 118 116 115 113 107 103 97 92 85 78 73 68 68 70 70 74 80 83 83 83 85 87 89 91 90 89 90 90 88 86
78 345 63 84 118 168 189 168 237 279 313 323 284 279 172 140 127 171 148 140 155 101 206 201 177 143 98 302 265 230 180 170 166 149 153 166 167 172 178 183 188 183 179 181 181 182 180 179 181 180 185 182 176 173 170 169 167 162 159 156 155 154 149 147 141 139 135 131 127 121 119 115 110 103 97 92 85 78 71 72 74 73 76 81 83 84 84 85 87 88 89 89 89 88 86 84 82
115 137 86 93 143 148 153 144 237 305 327 278 218 302 122 136 195 195 156 129 140 141 238 218 181 109 124 258 282 293 207 179 165 147 154 166 166 171 179 182 185 185 176 176 184 187 184 183 187 189 190 188 184 180 177 176 174 169 167 165 165 166 160 157 155 149 147 142 137 128 123 120 115 110 104 97 91 83 75 74 78 77 77 81 83 84 86 86 87 87 87 86 85 84 82 81 79
130 149 103 108 94 115 145 136 240 178 248 259 232 265 137 168 213 179 141 130 197 177 237 215 165 132 164 257 299 278 201 181 166 154 155 161 169 173 177 180 186 186 173 175 186 190 185 183 188 194 195 190 189 186 185 183 178 177 176 175 174 175 168 166 166 163 162 153 144 136 130 127 124 122 113 105 101 90 80 79 83 83 81 81 82 83 85 85 85 85 85 85 84 83 81 80 79
127 129 87 105 72 89 162 158 164 153 226 237 188 166 136 288 146 143 156 155 217 219 122 161 146 166 190 176 236 255 187 178 168 162 157 159 175 179 177 176 184 186 176 181 188 193 195 198 203 206 204 191 195 197 191 186 183 185 181 183 184 179 179 178 176 175 173 165 155 145 141 138 136 134 124 116 110 99 88 85 87 89 85 83 82 81 81 81 81 82 83 84 84 84 83 82 81
117 114 68 91 118 162 180 166 122 123 246 226 241 141 120 297 129 142 234 147 165 288 34 192 91 77 181 174 251 274 174 173 170 167 162 160 170 178 180 175 180 183 180 181 182 190 192 193 205 210 207 190 197 207 197 191 189 191 187 187 187 183 188 188 183 183 182 177 168 157 154 150 146 144 137 132 122 110 100 92 92 94 90 87 85 82 81 80 80 81 83 84 86 86 86 86 84
67 78 69 93 152 188 186 172 168 164 235 238 279 218 135 276 297 190 277 79 115 338 359 244 264 261 192 223 295 214 164 170 170 168 167 166 165 169 177 176 177 179 182 180 178 189 185 186 199 196 199 197 204 212 202 195 192 195 196 193 189 190 194 194 191 187 187 184 180 171 166 162 155 154 148 145 135 122 112 102 98 100 97 92 88 85 83 83 83 84 86 87 88 88 88 88 87
56 77 96 144 176 197 186 178 193 172 194 216 231 184 143 173 226 191 46 36 42 1 330 316 316 288 222 293 302 155 159 167 170 169 168 172 173 169 175 178 179 182 186 187 191 204 201 202 203 181 190 202 206 209 205 195 192 202 203 195 193 197 196 194 194 190 191 189 189 183 176 173 165 160 157 154 145 136 129 114 107 109 105 96 91 88 87 86 87 87 88 88 89 89 89 88 88
86 106 101 197 195 202 194 175 186 169 156 185 190 154 158 187 173 138 202 313 11 11 290 340 328 291 262 84 144 151 158 165 171 173 172 176 181 180 181 183 186 189 190 194 198 205 209 210 201 183 187 197 195 197 204 198 189 204 209 199 195 200 200 194 194 192 193 193 191 186 180 179 173 167 163 161 152 148 140 122 117 119 113 100 96 93 91 90 90 90 88 87 88 88 87 86 87
135 107 97 233 209 219 215 180 190 199 151 147 173 149 179 233 169 149 190 190 349 218 230 253 273 255 221 169 157 158 164 167 173 178 179 182 187 189 189 189 193 197 197 201 202 203 209 210 204 197 195 205 200 188 200 203 193 201 206 201 197 200 202 194 194 196 196 194 189 184 182 182 179 175 169 165 162 157 145 131 127 127 120 106 100 97 94 94 93 92 89 86 86 86 85 85 84
117 105 160 220 182 199 214 190 201 201 161 143 151 118 220 250 173 151 148 142 277 247 224 203 219 222 196 193 179 173 174 174 179 184 184 188 192 196 197 196 199 200 202 204 207 208 209 213 213 211 207 214 219 199 205 212 205 206 202 198 197 200 203 198 198 201 198 191 186 184 186 187 183 178 172 171 173 165 153 146 140 136 129 115 106 101 98 98 97 95 93 90 87 86 84 83 81
74 56 187 191 147 126 213 190 182 163 132 116 121 146 201 204 130 154 153 180 241 232 228 217 218 202 179 183 180 179 184 185 188 190 191 193 195 198 199 200 200 200 203 204 206 210 212 217 219 221 217 212 215 212 212 215 212 209 205 202 201 202 203 201 205 206 202 192 189 191 194 193 182 177 175 176 181 173 162 161 151 144 140 126 114 106 106 106 105 104 101 96 92 88 84 82 78
94 345 294 206 195 178 318 183 170 133 119 138 155 181 149 95 276 193 171 218 227 213 242 238 244 213 177 168 168 178 190 195 198 198 197 197 198 200 199 200 201 201 204 205 207 210 213 217 219 223 220 209 204 206 211 213 212 206 204 209 209 209 206 201 205 209 205 198 197 196 198 196 180 178 183 181 185 178 168 171 161 151 149 138 129 121 119 119 115 113 108 105 100 93 87 83 77
89 106 310 213 204 241 332 93 145 122 128 175 171 127 117 171 232 42 212 240 240 252 277 254 252 199 168 160 173 188 195 200 205 205 203 203 204 203 202 202 203 205 207 207 209 211 214 217 218 221 222 217 207 203 208 209 212 209 204 209 207 206 207 204 204 206 208 203 200 197 193 198 188 184 190 188 185 180 171 174 166 156 156 150 148 146 136 131 125 120 116 113 106 99 93 87 79
66 137 236 175 201 275 305 82 89 102 132 154 118 128 216 199 195 332 248 248 260 283 342 57 147 149 164 173 186 193 197 206 210 211 211 211 212 209 209 208 206 208 210 211 213 214 218 220 221 220 222 227 218 209 207 204 211 207 201 208 208 204 206 209 206 203 208 195 189 198 196 199 200 191 194 192 185 181 175 173 168 161 161 162 163 163 151 142 133 126 123 118 110 104 98 93 90
121 132 194 80 339 318 334 91 62 52 109 100 121 251 289 242 223 275 256 252 266 314 48 58 116 146 183 189 193 194 197 208 208 210 214 215 216 216 215 212 212 214 215 217 219 222 226 228 230 226 220 223 223 213 207 207 211 208 209 213 212 212 208 208 201 199 210 195 191 212 208 204 208 200 196 190 184 183 178 174 172 167 165 170 175 173 162 151 140 136 131 124 117 112 105 101 102
135 103 104 70 345 326 8 38 18 10 246 130 170 254 290 333 316 257 271 311 7 87 54 19 148 181 204 200 206 203 207 211 208 207 210 213 215 218 218 215 217 218 219 223 226 231 235 239 237 233 224 217 216 212 209 211 212 211 216 212 210 213 210 207 203 206 217 206 212 224 213 211 215 210 197 186 185 187 184 181 176 172 173 177 181 177 167 158 149 144 138 130 124 117 111 108 107
93 110 118 15 350 339 8 354 331 339 198 155 144 254 297 0 275 237 280 359 13 147 202 262 209 225 226 220 227 215 222 219 211 208 207 211 214 216 216 216 217 218 221 226 232 238 242 247 242 234 225 214 210 209 210 213 213 210 212 214 215 209 204 204 202 210 212 204 217 221 208 212 212 210 201 189 189 189 188 187 179 178 186 186 182 178 170 163 155 147 141 134 128 122 116 114 111
51 80 141 326 357 4 329 328 316 339 176 177 123 331 296 256 230 245 326 358 37 135 223 253 239 248 250 241 247 233 234 225 214 216 215 216 217 217 217 218 219 220 225 230 236 243 247 249 242 229 220 212 207 204 208 213 211 209 213 218 214 203 202 206 202 206 204 198 210 209 198 202 202 204 203 195 193 192 189 187 182 184 191 195 188 179 173 167 158 148 142 137 130 124 119 117 112
6 40 84 335 2 345 300 33 9 151 163 200 115 277 277 253 248 267 347 149 111 206 243 248 244 253 254 247 252 248 242 230 223 224 222 221 220 221 220 220 221 223 227 232 237 244 248 242 231 224 215 207 201 199 206 209 206 207 212 209 207 208 204 201 197 194 192 188 196 197 188 197 203 204 209 202 194 193 190 187 190 191 191 195 191 181 174 167 158 149 144 137 130 125 120 118 113
37 21 58 24 10 284 294 358 133 149 177 43 103 221 268 269 267 292 315 178 155 225 246 246 245 251 253 251 251 252 247 237 236 234 231 227 224 224 224 222 223 224 227 231 237 244 244 229 215 218 211 198 195 198 203 204 200 200 207 203 201 205 194 187 188 189 192 191 196 196 193 219 209 200 206 201 193 196 196 196 196 191 190 192 189 182 172 164 157 150 145 138 130 127 123 120 115
32 354 310 351 133 271 304 303 156 142 350 49 106 221 272 271 272 311 323 195 178 232 251 255 250 247 246 251 248 252 258 251 250 245 239 233 229 227 226 225 225 224 227 230 235 241 233 215 207 211 207 197 194 199 201 200 196 195 205 206 198 196 190 193 199 196 196 191 189 194 208 224 204 190 193 192 196 202 200 198 189 182 188 188 180 173 166 161 156 149 145 143 136 132 127 122 118
358 63 241 278 153 283 315 327 242 161 51 24 160 229 273 277 279 322 351 177 198 250 262 258 248 247 243 245 247 249 260 262 257 249 241 235 231 229 228 228 227 226 228 230 234 236 221 204 203 205 204 200 197 199 201 198 194 197 203 200 197 197 193 202 204 194 190 186 181 186 201 199 181 175 181 183 193 194 188 186 181 181 188 180 168 163 160 159 157 150 143 145 145 140 133 126 122
319 24 234 244 199 226 297 312 294 34 85 219 228 230 253 268 281 303 306 174 196 244 256 257 249 249 244 243 249 247 248 253 251 245 238 233 230 229 228 228 226 225 227 230 233 231 213 198 201 204 200 201 201 198 201 198 193 197 198 194 204 208 200 202 203 193 185 183 184 196 216 205 190 193 195 194 194 189 187 186 183 183 178 170 165 162 158 156 156 154 146 144 146 143 137 130 127
209 195 176 260 242 211 255 280 251 109 70 229 223 249 258 267 278 282 265 177 194 240 250 260 261 251 248 245 244 243 243 243 244 242 237 233 229 226 225 224 222 222 224 227 230 223 206 197 202 205 198 198 203 198 199 198 190 192 195 197 207 201 194 195 194 190 185 186 197 218 230 213 201 208 208 206 201 196 195 187 179 175 171 167 165 161 157 158 158 159 153 146 142 141 138 134 132
161 175 151 176 223 247 236 249 264 210 157 239 227 239 258 263 269 275 269 181 202 251 260 265 264 252 248 244 242 242 238 243 246 244 238 233 229 225 222 220 218 219 221 223 224 214 202 200 203 204 200 198 201 197 194 194 190 188 187 190 192 182 180 183 183 188 190 192 203 220 223 203 198 212 205 199 202 199 189 178 171 168 168 166 164 161 161 164 163 160 156 150 144 138 137 138 137
117 124 127 174 199 268 255 245 292 260 170 251 235 238 263 266 264 268 271 208 228 257 261 260 256 250 246 241 242 240 236 246 254 246 235 230 227 223 219 216 214 215 217 217 217 208 201 204 205 203 202 199 198 199 196 191 187 182 176 179 187 186 186 186 186 190 191 196 196 213 224 206 200 204 193 186 198 193 179 170 164 163 166 165 166 168 166 167 167 162 156 152 150 143 137 137 139
86 124 148 269 207 251 258 232 303 303 177 267 291 274 269 267 267 268 263 242 245 245 245 252 250 246 245 241 243 242 243 253 251 236 227 220 219 217 214 212 211 211 211 211 211 205 201 206 208 204 203 200 199 203 198 190 187 188 189 190 194 195 193 192 194 193 194 206 207 213 216 200 188 190 186 187 191 183 173 166 163 166 172 176 177 174 170 169 167 167 161 153 152 151 144 140 143
75 109 128 281 254 270 282 302 336 354 180 273 336 315 274 269 268 266 254 240 244 242 238 247 248 248 246 239 241 244 251 253 238 228 218 213 213 212 211 210 211 212 211 209 208 204 201 205 209 205 203 203 202 201 196 193 193 196 202 199 192 190 188 190 193 190 190 206 216 213 204 193 189 193 195 195 188 181 178 176 177 181 184 186 184 175 171 171 169 171 171 162 154 151 148 147 150
117 137 152 255 262 274 282 301 336 2 156 277 319 306 277 271 268 263 255 247 256 257 251 252 246 245 248 246 243 238 242 246 239 228 211 209 210 208 210 210 210 210 209 207 204 202 202 205 208 205 202 204 203 200 196 196 195 192 194 193 191 191 188 187 188 186 188 200 211 206 202 204 203 198 195 192 187 184 186 188 190 187 183 185 186 179 174 174 173 172 173 170 161 153 150 153 160
240 188 181 221 237 218 234 290 324 343 12 14 343 312 284 274 270 266 278 311 292 265 255 260 251 244 251 260 258 239 235 240 237 227 207 202 207 209 210 210 208 207 206 206 203 202 202 203 206 204 202 203 203 202 201 200 196 191 187 184 184 185 181 181 180 180 186 195 199 199 202 206 202 194 189 188 187 186 188 192 189 184 182 185 188 185 178 175 174 174 173 173 170 163 159 158 161
275 230 202 214 224 220 239 347 6 359 336 348 24 319 284 299 281 264 289 329 296 269 247 259 260 254 248 253 255 245 239 239 234 228 211 203 209 211 211 210 207 207 208 207 205 203 202 202 203 204 203 202 202 203 204 204 202 196 189 181 177 174 172 176 181 184 189 192 193 198 201 198 196 193 188 185 186 187 189 189 185 184 185 185 186 183 177 174 173 174 175 175 174 173 168 160 155
282 248 206 211 205 190 200 105 52 309 267 288 66 179 274 302 280 263 277 285 277 277 267 263 267 265 247 241 250 248 241 238 236 234 216 207 210 208 210 210 208 209 209 205 204 202 201 203 203 202 203 202 202 202 201 201 202 199 194 190 187 186 182 182 187 191 193 191 193 198 198 193 192 192 188 185 185 187 188 184 182 184 182 178 177 175 172 172 172 171 175 177 175 175 173 164 156
241 246 165 170 174 187 190 156 176 238 268 303 67 132 257 286 273 274 288 280 280 281 274 270 267 262 256 250 249 247 240 231 228 231 220 212 212 208 211 212 210 210 207 201 201 201 201 203 203 202 202 202 202 203 202 201 201 201 199 196 195 195 195 193 191 192 193 192 192 195 194 191 190 190 189 186 185 187 185 181 180 179 175 171 169 169 168 168 169 170 173 176 176 176 181 173 161
245 206 122 136 150 162 140 125 167 352 357 294 225 134 232 268 271 308 330 276 277 274 267 269 272 267 262 258 255 255 247 229 220 224 222 216 214 214 215 213 210 208 204 201 201 201 201 202 202 202 202 203 203 204 206 206 206 207 205 202 198 195 194 193 191 190 190 190 189 190 191 189 188 188 186 185 183 183 182 179 178 175 171 167 165 165 165 166 168 169 171 174 174 173 179 176 164
202 128 96 80 78 81 83 103 119 53 336 257 209 159 217 268 262 292 349 238 252 261 263 266 273 273 265 263 268 273 267 245 231 229 227 222 221 219 216 211 208 206 203 201 200 200 200 201 201 201 202 205 204 205 207 208 207 208 207 204 200 194 191 189 187 186 186 187 187 187 189 188 187 186 184 183 182 181 180 179 177 174 171 167 164 162 161 161 163 163 165 167 167 164 164 165 161
140 109 71 53 41 40 52 56 77 67 281 265 204 177 194 271 269 225 217 219 225 242 264 276 281 285 277 271 275 274 271 259 244 242 242 232 226 219 211 206 204 202 201 199 197 198 200 201 200 200 202 205 205 206 208 208 207 205 206 204 201 196 193 191 187 183 182 184 185 186 187 187 187 186 184 183 182 181 180 179 176 174 171 168 166 162 159 157 157 157 158 159 160 160 159 160 158
110 90 82 72 357 9 24 357 44 126 254 281 255 180 179 234 257 235 247 262 242 227 245 264 273 281 281 276 273 268 261 255 246 243 241 222 206 202 199 198 197 196 197 196 196 197 198 199 199 199 201 203 205 206 207 208 207 204 202 201 201 202 202 199 193 187 185 185 186 187 187 187 187 187 186 185 184 182 180 178 176 174 172 170 167 164 160 158 157 157 157 159 160 160 160 161 157
85 101 110 103 337 354 345 305 73 220 255 284 333 186 188 237 253 255 262 266 253 230 228 239 252 265 275 278 272 267 256 244 242 234 223 207 191 191 191 192 192 193 195 196 196 197 198 199 199 199 201 202 204 205 205 207 206 203 201 201 205 207 208 206 199 192 189 188 189 191 192 191 190 189 188 187 185 183 181 178 176 175 173 172 169 165 161 159 159 158 158 160 160 160 159 158 153
157 149 142 137 138 166 254 265 271 261 270 283 259 243 251 265 266 244 243 252 250 240 239 238 244 255 267 283 288 280 266 242 238 234 218 211 202 195 193 192 192 194 195 196 196 197 198 199 200 201 202 202 203 205 205 205 205 204 205 207 209 209 206 204 199 195 193 194 196 200 202 200 196 193 189 187 185 183 181 179 178 176 174 173 170 165 162 160 160 160 160 161 160 159 158 155 151
185 157 137 160 168 171 211 219 213 246 282 305 278 230 194 209 254 236 234 257 268 259 259 258 257 253 259 286 290 280 270 248 235 235 224 216 206 199 196 195 195 196 196 196 196 197 198 199 201 202 203 203 204 205 205 205 206 207 208 209 210 209 206 202 200 199 201 205 207 206 207 206 202 196 190 186 184 182 180 179 178 178 176 174 170 166 163 161 162 162 162 163 161 159 159 157 154
215 115 114 198 195 155 157 201 177 180 312 308 252 228 213 210 272 272 247 265 271 257 264 273 265 257 253 276 274 272 271 254 229 231 229 220 207 201 199 198 198 197 197 197 197 197 198 200 201 203 205 205 204 204 205 207 207 208 209 209 210 208 204 200 200 202 207 214 216 212 209 207 202 195 189 186 184 181 180 180 179 179 177 175 171 168 166 164 165 166 165 166 164 162 162 160 156
162 143 180 218 177 123 108 245 88 78 264 271 222 245 284 313 286 272 250 258 267 261 260 257 257 258 257 263 261 264 268 248 229 231 225 214 206 205 203 200 200 199 199 200 199 199 200 200 201 202 204 205 205 205 205 206 207 209 211 211 210 207 203 203 205 210 215 217 215 212 209 204 198 193 189 186 183 182 182 182 181 180 178 176 173 171 170 168 169 170 170 170 168 165 165 163 160
136 186 204 175 87 94 106 208 345 44 240 270 253 243 276 305 274 289 273 251 262 264 257 254 259 254 248 259 258 263 267 244 233 237 228 216 207 206 205 204 203 202 203 203 203 202 202 202 202 201 202 204 205 205 204 205 207 210 211 210 209 207 207 211 215 220 221 216 211 207 204 200 195 192 189 185 184 183 183 183 183 182 180 178 176 174 173 172 172 174 174 174 171 168 168 166 164
140 189 179 119 141 199 114 162 208 183 238 277 286 268 251 208 230 274 220 224 242 257 256 253 256 239 232 251 259 267 276 253 240 238 229 221 209 207 206 205 207 206 206 206 205 204 203 204 205 204 204 205 205 205 205 206 208 210 212 211 210 211 213 216 219 221 218 213 209 204 200 196 193 190 188 185 185 185 185 185 185 184 182 180 179 178 177 177 177 178 178 176 174 173 172 170 168
66 117 121 101 166 181 163 163 168 175 216 264 303 307 260 217 206 201 218 223 218 238 249 244 247 239 227 236 247 256 256 242 241 235 230 225 213 212 208 206 208 207 208 207 205 205 204 204 205 205 205 205 206 207 207 207 210 211 212 211 212 214 216 218 221 219 216 212 208 204 198 194 191 189 187 187 187 187 187 187 187 187 185 183 182 181 180 180 181 182 181 179 177 176 176 174 172
152 168 172 185 175 122 154 198 133 142 168 195 279 289 265 240 194 192 212 222 212 217 226 225 236 239 232 233 236 239 240 241 239 229 230 225 212 213 211 210 211 209 209 208 206 207 206 206 206 205 205 205 206 208 208 209 211 212 213 213 213 213 214 217 219 217 214 211 207 202 197 194 192 190 189 190 190 190 190 190 190 189 187 186 185 184 183 184 184 185 184 183 180 178 178 177 177
182 190 196 194 176 143 173 236 215 129 163 180 181 265 267 248 192 198 207 221 224 211 199 216 242 240 236 240 236 231 234 237 234 228 229 222 208 208 206 207 208 207 207 208 207 207 207 207 207 206 207 207 207 207 208 210 212 213 214 214 215 214 213 214 214 214 213 210 206 201 197 195 193 192 192 192 192 192 193 193 192 191 190 189 188 187 186 187 187 187 186 185 184 181 180 180 182